Location: Im Fang
(46.6019°N, 7.2397°E)
Time: 19:22:02
(UTC+00:00)

X-37B - Visible Passes

Search period start: 07 March 2021 00:00
Search period end: 17 March 2021 00:00
Orbit: 383 x 391 km, 45.0° (Epoch: 27 February)

Date Brightness Start Highest point End Pass type
(mag) Time Alt. Az. Time Alt. Az. Time Alt. Az.
11 Mar 2.7 19:17:10 10° SSW 19:18:23 17° SSW 19:18:23 17° SSW visible
12 Mar 2.6 18:19:39 10° S 18:21:38 15° SSE 18:23:05 12° ESE visible
12 Mar 3.3 19:54:41 10° WSW 19:55:23 15° WSW 19:55:23 15° WSW visible
13 Mar 1.4 18:56:34 10° SW 18:59:32 34° SSE 18:59:58 32° SE visible
14 Mar 1.6 19:34:27 10° WSW 19:36:45 41° SW 19:36:45 41° SW visible
15 Mar 1.0 18:36:12 10° WSW 18:39:19 47° SSE 18:41:10 21° E visible
15 Mar 3.4 20:12:37 10° W 20:13:28 17° W 20:13:28 17° W visible
16 Mar 0.6 19:14:17 10° W 19:17:28 67° S 19:17:49 60° SE visible
